Wind_Speed
6 6 5 4 4 3 3 2 2 2 1 1 1 1 1 0 1 1 2 2 3 3 3 4 5 5 5 5 5 6 6 5 5 6 8 8 9 10 11 11 11 11 11
6 6 5 4 4 4 3 2 2 1 1 1 1 1 1 1 1 1 1 2 3 3 3 4 5 5 6 6 6 6 6 6 6 7 8 9 9 10 11 11 11 12 12
7 8 6 4 3 3 3 2 2 2 1 1 1 1 1 2 2 1 2 3 3 4 3 4 5 5 6 7 7 7 7 7 7 8 8 9 9 10 10 11 12 12 12
7 7 7 6 5 4 4 4 3 2 2 2 2 1 1 2 3 3 3 3 4 4 5 5 5 5 6 7 7 8 8 9 9 9 9 9 10 11 11 11 12 13 13
7 7 6 6 6 6 6 5 3 3 3 3 3 3 2 3 3 4 4 4 5 5 6 6 5 5 6 7 8 9 9 10 10 10 10 10 11 12 12 13 13 13 14
7 7 6 6 6 6 6 6 5 4 4 4 4 4 4 4 5 5 6 6 6 7 7 6 6 7 7 7 8 9 9 10 10 10 10 11 11 12 13 14 13 14 14
8 7 7 6 6 5 5 6 6 5 5 5 5 5 5 5 6 6 7 7 7 7 7 7 7 8 8 8 8 9 9 10 11 11 10 11 12 13 14 15 15 14 15
7 7 7 6 6 6 6 6 6 5 5 6 6 5 5 6 7 7 7 7 7 8 8 8 8 9 10 9 9 10 10 11 11 11 11 11 12 12 13 15 15 15 16
7 7 7 6 6 6 6 6 6 5 6 7 7 6 6 7 8 8 9 8 8 9 9 10 10 10 10 11 11 12 12 12 12 12 12 12 12 12 12 13 14 15 16
7 6 6 7 6 6 7 7 7 7 7 8 8 8 8 9 9 9 9 9 10 10 11 11 11 12 12 12 13 13 13 14 13 13 13 12 13 13 13 14 15 16 16
7 7 7 7 7 7 8 8 8 8 9 10 10 9 9 10 10 11 11 11 12 12 13 13 13 13 14 14 13 14 14 14 14 14 13 13 14 14 14 15 16 17 16
8 7 7 8 8 9 9 9 9 10 10 11 11 11 11 11 11 11 12 11 12 13 13 14 14 14 14 15 14 14 14 15 15 16 15 15 15 16 16 16 16 17 17
9 8 9 9 9 9 10 10 10 11 12 12 12 13 13 13 13 13 13 13 13 13 13 14 15 15 14 14 14 14 14 15 16 17 16 16 16 16 16 17 17 18 18
10 10 10 10 11 11 11 11 12 12 12 13 13 14 14 14 14 14 14 14 14 14 14 15 15 16 16 15 15 15 16 16 16 17 17 16 16 17 17 17 18 18 18
12 11 12 12 12 12 12 13 13 13 14 15 15 15 15 16 16 15 15 16 16 16 16 16 17 16 17 17 17 17 17 17 18 18 18 18 17 17 17 18 18 18 19
14 13 14 14 13 13 14 14 15 15 15 16 16 16 16 17 17 16 16 16 17 18 18 17 17 17 17 18 18 17 18 18 19 19 19 19 18 18 18 18 19 19 19
15 15 15 15 14 15 15 16 16 16 17 17 18 18 18 18 17 17 17 17 18 18 19 18 19 19 19 19 19 19 19 19 20 20 20 19 19 19 19 18 19 19 19
16 16 16 17 16 17 17 17 18 18 19 19 19 19 19 19 18 18 19 19 19 20 20 19 20 20 20 20 20 20 20 20 20 20 20 19 19 19 19 20 20 20 20
18 18 19 19 19 18 18 19 19 20 20 20 19 20 20 20 20 20 20 20 20 20 20 20 20 20 21 21 21 20 20 21 21 20 20 20 20 20 20 20 20 21 20
20 20 21 20 20 20 20 20 20 20 21 21 21 21 21 21 21 21 21 20 21 20 20 20 21 21 21 21 21 21 20 21 21 21 21 21 21 21 21 21 21 22 21
21 21 22 22 21 21 21 20 21 21 22 22 23 23 22 22 22 22 22 21 21 21 20 20 21 21 21 21 20 20 20 20 21 21 21 22 22 22 23 22 22 22 22
23 23 23 23 22 21 21 21 21 22 22 23 23 24 24 23 23 22 22 22 22 21 21 21 21 21 21 21 20 20 20 20 21 22 22 22 22 23 24 23 23 22 23
24 24 23 23 23 22 22 21 21 22 22 23 24 24 24 24 23 22 22 22 22 22 22 21 21 21 21 21 21 21 21 21 21 22 22 22 22 22 23 23 23 23 23
25 24 23 23 23 23 23 22 23 23 23 24 24 25 24 24 23 22 22 23 23 23 22 22 22 22 23 23 23 22 22 22 21 21 22 22 21 22 22 23 23 24 24
25 25 24 24 24 24 24 24 24 24 24 25 25 25 24 24 23 23 23 23 23 23 23 23 23 23 23 23 23 23 23 22 22 22 22 22 21 22 22 23 23 24 25
26 26 25 24 24 24 25 25 25 25 25 26 26 25 24 24 23 23 23 23 24 24 24 24 23 23 23 23 24 24 24 23 23 23 23 22 22 22 23 23 23 24 25
Wind_Direction
33 31 30 30 33 30 27 14 20 25 8 1 348 358 11 299 319 314 254 250 257 259 267 270 267 264 264 265 264 261 264 264 266 262 261 260 255 254 252 249 247 245 245
25 23 21 24 25 33 23 7 344 338 325 325 347 358 354 276 356 342 301 282 287 291 290 278 276 272 267 263 263 265 263 265 267 267 262 259 258 256 255 251 248 248 247
16 20 29 32 38 31 12 4 359 359 326 310 341 358 17 21 9 335 313 303 297 298 296 286 279 279 277 272 269 267 267 268 268 268 265 260 258 256 253 250 247 248 248
14 18 22 25 24 13 3 3 3 357 347 344 344 345 350 351 342 333 316 303 297 293 294 290 281 281 284 282 279 275 274 272 270 268 266 261 257 255 253 250 248 249 250
10 9 16 13 13 8 8 6 6 2 348 335 318 310 319 328 325 322 316 300 294 298 299 293 286 285 285 282 280 281 281 278 275 270 265 264 260 257 254 251 247 248 251
4 9 10 6 4 6 8 7 6 0 346 330 319 311 317 322 313 309 306 303 301 302 300 292 288 288 285 287 282 283 285 284 279 276 273 269 266 260 256 252 249 249 253
6 9 9 7 4 3 2 2 0 353 347 340 332 320 311 313 309 307 304 301 296 297 296 294 292 293 290 285 285 285 286 286 281 279 280 276 273 266 259 253 251 251 254
5 4 1 3 0 357 354 352 349 345 340 337 328 320 314 306 306 303 302 298 294 293 297 294 291 296 296 288 287 286 288 284 282 282 283 279 276 274 268 260 256 256 257
2 2 357 350 346 346 343 340 337 331 330 327 324 314 309 306 306 302 304 299 295 294 296 294 289 291 292 290 286 287 283 281 283 282 281 278 274 275 274 268 263 260 259
353 353 349 339 332 333 336 334 329 322 318 314 309 307 307 304 303 302 299 297 296 295 294 291 286 286 290 290 288 288 285 283 280 280 279 278 276 274 274 270 267 263 259
342 339 336 333 332 327 326 325 323 317 314 310 304 301 304 303 299 298 295 296 300 301 296 294 291 290 290 290 287 288 287 285 284 281 279 279 276 276 274 271 267 262 257
331 327 325 324 323 319 319 322 319 315 309 307 306 304 302 303 300 299 298 301 302 303 303 299 295 291 289 290 290 289 285 283 285 282 281 281 279 275 272 270 269 263 258
322 318 316 315 314 312 312 315 314 313 310 307 308 307 302 300 298 298 298 301 300 300 302 302 297 291 289 290 292 292 289 284 285 280 279 280 279 277 274 270 270 265 261
317 312 310 309 309 308 309 312 312 310 311 310 307 306 304 302 298 297 300 299 298 299 299 299 299 295 294 291 289 290 289 284 285 284 279 279 279 278 278 275 271 267 262
314 308 308 307 307 305 305 307 309 309 309 311 309 308 307 306 303 298 299 298 298 297 297 298 297 295 293 292 291 288 288 284 284 285 282 279 277 276 277 276 272 268 265
307 303 305 305 304 303 303 304 305 307 306 307 307 306 306 306 304 301 298 296 297 298 297 297 297 294 291 292 290 291 288 283 284 282 279 279 277 276 275 274 270 266 264
303 303 305 304 300 301 301 302 303 302 301 302 304 304 305 303 303 299 297 295 295 296 297 296 295 293 290 289 289 290 290 286 283 282 279 277 276 272 271 270 268 265 262
304 304 304 304 301 300 300 300 300 300 300 300 301 303 304 302 300 298 296 295 294 295 295 294 293 293 290 287 288 288 288 286 283 281 280 278 279 276 272 271 268 266 262
301 299 300 298 297 297 298 298 298 299 299 300 300 301 302 303 300 298 296 295 295 295 295 294 293 291 289 287 287 287 286 285 283 281 282 281 280 280 276 273 270 268 264
301 299 296 294 294 293 294 295 295 297 297 298 299 299 298 300 301 298 297 296 295 295 294 295 294 292 290 289 288 287 285 284 284 281 281 280 279 279 277 274 272 270 268
300 298 297 294 291 290 291 292 293 295 295 296 297 298 297 297 298 298 297 296 295 294 293 294 294 292 290 289 288 287 286 285 284 282 281 280 279 277 275 276 274 273 270
299 299 299 297 292 290 291 291 292 294 295 295 297 297 296 295 295 295 296 295 295 294 292 294 294 292 290 288 287 286 286 286 284 281 280 280 276 275 274 274 274 274 270
296 298 298 298 294 292 292 291 292 294 294 294 296 298 296 295 294 294 295 296 296 294 293 295 294 291 290 288 287 285 283 283 283 281 280 279 277 276 275 273 273 272 271
293 295 295 296 295 293 292 291 291 292 294 295 296 297 296 294 295 295 295 295 297 294 293 293 292 290 290 288 286 285 285 283 282 282 282 279 277 276 275 275 273 272 272
291 290 292 294 294 293 293 293 292 292 293 295 295 295 293 294 295 294 294 294 295 295 294 292 291 289 288 287 285 285 285 283 281 279 280 279 278 277 276 275 274 273 272
289 292 291 292 293 293 293 292 292 292 292 293 293 292 292 292 293 292 292 293 293 293 294 292 290 288 288 287 286 286 286 284 281 279 279 279 278 278 276 275 275 274 272
Height
5891 5890 5889 5888 5888 5887 5886 5886 5885 5884 5884 5884 5883 5883 5882 5882 5880 5880 5880 5879 5879 5879 5878 5878 5877 5877 5876 5875 5875 5874 5874 5873 5873 5872 5872 5872 5872 5873 5873 5873 5873 5874 5874
5891 5890 5889 5888 5887 5886 5886 5885 5884 5884 5883 5883 5883 5882 5881 5881 5880 5879 5879 5879 5878 5878 5877 5876 5876 5875 5874 5873 5873 5872 5871 5871 5870 5870 5870 5870 5870 5870 5870 5870 5871 5871 5872
5891 5890 5889 5888 5887 5886 5885 5884 5883 5882 5882 5882 5881 5881 5880 5880 5879 5879 5878 5878 5877 5876 5875 5875 5874 5873 5872 5871 5870 5870 5869 5868 5868 5867 5867 5867 5867 5867 5867 5867 5868 5868 5869
5891 5890 5889 5888 5887 5886 5885 5883 5882 5882 5881 5881 5881 5880 5880 5879 5879 5878 5878 5877 5876 5875 5874 5873 5872 5871 5870 5869 5868 5867 5867 5866 5865 5865 5865 5864 5864 5864 5864 5864 5865 5865 5865
5891 5890 5889 5888 5887 5886 5884 5883 5882 5881 5881 5880 5880 5879 5879 5878 5878 5877 5876 5875 5874 5874 5872 5871 5870 5869 5868 5867 5866 5865 5864 5863 5863 5862 5862 5861 5861 5861 5861 5861 5861 5862 5862
5891 5889 5888 5887 5886 5885 5884 5883 5882 5881 5880 5880 5879 5878 5878 5877 5876 5875 5875 5874 5872 5871 5871 5869 5868 5867 5866 5865 5863 5863 5862 5861 5860 5859 5858 5858 5858 5857 5857 5857 5858 5858 5858
5890 5889 5888 5887 5886 5885 5883 5883 5881 5881 5880 5879 5878 5877 5876 5876 5875 5874 5873 5872 5870 5869 5868 5867 5866 5864 5863 5862 5861 5860 5859 5858 5857 5855 5855 5855 5854 5854 5853 5853 5854 5854 5854
5889 5888 5887 5886 5885 5884 5883 5882 5880 5880 5879 5878 5877 5876 5875 5875 5873 5872 5871 5869 5868 5866 5865 5864 5863 5862 5860 5859 5859 5858 5856 5855 5853 5852 5852 5852 5851 5850 5850 5850 5850 5850 5850
5889 5887 5886 5885 5884 5883 5882 5881 5880 5879 5878 5877 5875 5875 5873 5872 5871 5870 5868 5867 5865 5863 5862 5861 5860 5859 5858 5857 5856 5855 5853 5852 5851 5850 5849 5848 5847 5847 5846 5846 5846 5846 5846
5888 5886 5885 5884 5883 5882 5881 5879 5878 5877 5876 5875 5874 5872 5871 5870 5868 5867 5866 5864 5862 5861 5859 5858 5857 5856 5855 5854 5853 5851 5850 5849 5847 5846 5845 5844 5844 5843 5842 5842 5841 5841 5841
5887 5885 5884 5883 5882 5880 5879 5878 5877 5875 5874 5872 5871 5869 5868 5867 5865 5864 5863 5861 5860 5857 5856 5854 5853 5852 5851 5849 5848 5847 5846 5844 5843 5842 5841 5840 5840 5839 5838 5837 5837 5837 5836
5885 5884 5883 5882 5880 5878 5877 5875 5874 5873 5871 5870 5868 5867 5865 5864 5862 5861 5859 5857 5856 5854 5852 5851 5849 5847 5846 5845 5844 5843 5842 5841 5839 5838 5836 5836 5835 5834 5833 5833 5832 5832 5832
5884 5882 5881 5880 5878 5876 5875 5873 5871 5870 5868 5867 5865 5863 5862 5860 5859 5857 5855 5853 5852 5851 5849 5847 5845 5843 5841 5840 5840 5838 5837 5836 5835 5833 5832 5831 5830 5829 5828 5828 5827 5827 5827
5881 5880 5878 5877 5875 5874 5872 5870 5868 5867 5865 5863 5862 5860 5858 5856 5854 5853 5851 5850 5848 5847 5845 5843 5841 5839 5838 5836 5835 5834 5832 5831 5830 5829 5827 5826 5825 5824 5823 5822 5822 5822 5821
5878 5876 5875 5874 5872 5870 5869 5867 5865 5863 5861 5860 5858 5856 5854 5852 5850 5848 5847 5845 5844 5842 5841 5839 5837 5835 5833 5832 5830 5829 5827 5826 5825 5824 5822 5821 5820 5819 5818 5817 5816 5816 5815
5874 5873 5871 5870 5868 5867 5865 5863 5861 5859 5857 5855 5853 5851 5850 5848 5845 5844 5842 5841 5839 5837 5836 5834 5832 5830 5828 5827 5825 5824 5822 5821 5819 5818 5817 5815 5814 5813 5812 5811 5810 5810 5810
5870 5869 5867 5866 5864 5862 5861 5859 5857 5855 5853 5851 5849 5847 5845 5843 5841 5839 5837 5835 5833 5832 5830 5828 5826 5824 5823 5821 5820 5818 5817 5815 5813 5812 5810 5809 5808 5807 5806 5805 5804 5804 5804
5866 5865 5863 5861 5860 5858 5856 5854 5852 5850 5848 5846 5844 5842 5840 5838 5836 5834 5832 5830 5828 5826 5824 5823 5821 5818 5817 5815 5814 5812 5810 5809 5807 5805 5804 5803 5802 5801 5800 5799 5799 5798 5798
5862 5860 5858 5857 5855 5853 5851 5849 5847 5845 5842 5840 5838 5836 5834 5832 5830 5828 5826 5824 5822 5820 5818 5816 5815 5812 5811 5809 5807 5806 5804 5803 5801 5799 5798 5797 5795 5795 5794 5794 5793 5793 5792
5857 5855 5853 5851 5849 5847 5845 5843 5841 5839 5837 5835 5833 5831 5828 5826 5824 5822 5820 5818 5815 5814 5812 5810 5808 5806 5804 5802 5801 5800 5798 5796 5795 5793 5792 5791 5790 5789 5788 5788 5787 5787 5786
5851 5849 5847 5845 5842 5841 5839 5837 5835 5833 5831 5829 5827 5824 5822 5820 5818 5815 5813 5811 5809 5807 5805 5803 5801 5800 5798 5796 5795 5793 5791 5790 5788 5787 5786 5785 5783 5783 5782 5781 5781 5780 5780
5845 5843 5840 5838 5836 5834 5833 5831 5829 5827 5825 5823 5820 5818 5816 5813 5811 5809 5807 5805 5803 5801 5799 5797 5795 5793 5791 5790 5788 5787 5785 5784 5782 5781 5779 5778 5777 5776 5775 5775 5774 5773 5773
5839 5837 5834 5832 5829 5828 5826 5824 5822 5820 5818 5816 5814 5811 5809 5806 5804 5802 5800 5798 5796 5794 5792 5790 5788 5786 5785 5783 5781 5780 5778 5777 5775 5774 5772 5771 5770 5769 5768 5768 5767 5767 5766
5832 5830 5828 5826 5823 5821 5819 5817 5815 5814 5811 5809 5807 5805 5802 5800 5797 5795 5793 5791 5789 5787 5785 5783 5781 5780 5778 5776 5774 5773 5771 5769 5768 5767 5765 5764 5763 5762 5762 5761 5760 5760 5759
5825 5823 5821 5819 5817 5815 5813 5810 5808 5806 5804 5802 5800 5797 5795 5793 5790 5788 5786 5784 5782 5780 5777 5776 5774 5772 5771 5769 5767 5765 5764 5762 5761 5760 5758 5757 5757 5756 5755 5754 5753 5752 5752
5817 5816 5814 5812 5810 5808 5806 5804 5801 5799 5797 5795 5792 5790 5788 5786 5784 5781 5779 5777 5775 5773 5771 5769 5767 5765 5763 5761 5759 5758 5756 5755 5753 5752 5751 5750 5749 5748 5748 5747 5746 5745 5744